Location: Byhalia Creek
(34.8270°N, 89.8040°W)
Time: 20:59:15
(UTC+00:00)

Cosmos 2221 Rocket - Pass Details

Date: 22 April 2026
Orbit: 615 x 641 km, 82.5° (Epoch: 21 May)

Event Time Altitude Azimuth Distance (km) Brightness Sun altitude
Rises 02:25:41 0° 0° (N) 2,899 7.5 -21.2°
Reaches altitude 10° 02:27:59 10° 7° (N) 1,992 6.5 -21.6°
Enters shadow 02:31:38 42° 57° (ENE) 888 4.1 -22.2°
